This is the latest recevied weather packets stored in our database for station/object I1SXT-13. If no packets are shown the sender has not sent any weather packets the latest 10 day(s).
| Time | Temp. | Humidity | Pressure | Rain* | Wind** | Luminosity | Snow |
|---|---|---|---|---|---|---|---|
| 1777824268 | 19.44° C | 52% | 1020.2 hPa | 0 mm | - | - | - |
| 1777823963 | 19.44° C | 51% | 1019.4 hPa | 0 mm | - | - | - |
| 1777823666 | 18.89° C | 51% | 1019.4 hPa | 0 mm | - | - | - |
| 1777823369 | 19.44° C | 50% | 1019.4 hPa | 0 mm | - | - | - |
| 1777823065 | 19.44° C | 53% | 1019.9 hPa | 0 mm | - | - | - |
| 1777822768 | 20° C | 52% | 1019.8 hPa | 0 mm | - | - | - |
| 1777822464 | 20° C | 52% | 1018.7 hPa | 0 mm | - | - | - |
| 1777822167 | 20° C | 53% | 1019.5 hPa | 0 mm | - | - | - |
| 1777821870 | 20.56° C | 52% | 1020.1 hPa | 0 mm | - | - | - |
| 1777821566 | 20° C | 53% | 1019.2 hPa | 0 mm | - | - | - |
| 1777821269 | 20.56° C | 49% | 1020.1 hPa | 0 mm | - | - | - |
| 1777820363 | 21.11° C | 50% | 1020.2 hPa | 0 mm | - | - | - |
| 1777820066 | 20.56° C | 50% | 1019.9 hPa | 0 mm | - | - | - |
| 1777819770 | 20.56° C | 52% | 1020.3 hPa | 0 mm | - | - | - |
| 1777819465 | 21.11° C | 50% | 1019.9 hPa | 0 mm | - | - | - |
| 1777819168 | 21.11° C | 52% | 1020 hPa | 0 mm | - | - | - |
| 1777818864 | 21.11° C | 53% | 1020.3 hPa | 0 mm | - | - | - |
| 1777818567 | 21.11° C | 50% | 1020.5 hPa | 0 mm | - | - | - |
| 1777818270 | 21.67° C | 51% | 1020.5 hPa | 0 mm | - | - | - |
| 1777817966 | 21.11° C | 51% | 1019.8 hPa | 0 mm | - | - | - |
| 1777817668 | 21.67° C | 57% | 1020.3 hPa | 0 mm | - | - | - |
| 1777817364 | 21.11° C | 56% | 1020.9 hPa | 0 mm | - | - | - |
| 1777817067 | 21.11° C | 56% | 1020.7 hPa | 0 mm | - | - | - |
| 1777816763 | 20.56° C | 59% | 1020.5 hPa | 0 mm | - | - | - |
| 1777816466 | 20° C | 59% | 1021 hPa | 0 mm | - | - | - |
* Rain since midnight (hover to see other rain measurements)
** Current wind speed in m/s (hover to see current wind gust speed)